| time (UTC) | temp F | wind direction | speed knots | gust knots | rain 1hr in | rain 24hr in | rain mn in | humidity % | barometer mb |
| 20260502190702 | 52 | 338 | 2.6 | 9.6 | 0.00 | 0.00 | 0.00 | 86 | 1015.6 |
| 20260502185636 | 52 | 287 | 0.0 | 9.6 | 0.00 | 0.00 | 0.00 | 86 | 1015.8 |
| 20260502185123 | 52 | 16 | 1.7 | 9.6 | 0.00 | 0.00 | 0.00 | 87 | 1015.9 |
| 20260502184610 | 52 | 16 | 4.3 | 9.6 | 0.00 | 0.00 | 0.00 | 87 | 1015.9 |
| 20260502184057 | 52 | 357 | 0.9 | 7.8 | 0.00 | 0.00 | 0.00 | 87 | 1016.0 |
| 20260502183544 | 52 | 302 | 0.0 | 7.8 | 0.00 | 0.00 | 0.00 | 88 | 1016.0 |
| 20260502183031 | 52 | 14 | 3.5 | 7.8 | 0.00 | 0.00 | 0.00 | 87 | 1016.1 |
| 20260502182518 | 52 | 302 | 3.5 | 7.8 | 0.00 | 0.00 | 0.00 | 87 | 1016.0 |
| 20260502182005 | 52 | 277 | 2.6 | 7.0 | 0.00 | 0.00 | 0.00 | 87 | 1016.1 |
| 20260502181452 | 52 | 336 | 4.3 | 7.0 | 0.00 | 0.00 | 0.00 | 87 | 1016.1 |
| 20260502180939 | 52 | 305 | 4.3 | 7.0 | 0.00 | 0.00 | 0.00 | 88 | 1016.1 |
| 20260502180426 | 51 | 70 | 0.9 | 7.0 | 0.00 | 0.00 | 0.00 | 88 | 1016.2 |
| 20260502170150 | 51 | 0 | 0.0 | 4.3 | 0.00 | 0.00 | 0.00 | 88 | 1016.5 |
| 20260502164058 | 51 | 303 | 0.9 | 7.0 | 0.00 | 0.00 | 0.00 | 88 | 1016.6 |
| 20260502163545 | 51 | 0 | 0.0 | 7.0 | 0.00 | 0.00 | 0.00 | 88 | 1016.6 |
| 20260502163032 | 51 | 47 | 0.0 | 6.1 | 0.00 | 0.00 | 0.00 | 88 | 1016.6 |
| 20260502162519 | 51 | 0 | 0.0 | 0.0 | 0.00 | 0.00 | 0.00 | 88 | 1016.7 |
| 20260502161453 | 51 | 0 | 0.0 | 0.0 | 0.00 | 0.00 | 0.00 | 88 | 1016.7 |
| 20260502160940 | 51 | 0 | 0.0 | 0.0 | 0.00 | 0.00 | 0.00 | 88 | 1016.6 |
| 20260502160427 | 51 | 0 | 0.0 | 8.7 | 0.00 | 0.00 | 0.00 | 88 | 1016.6 |
| 20260502152243 | 51 | 312 | 0.0 | 5.2 | 0.00 | 0.00 | 0.00 | 87 | 1016.8 |
| 20260502151729 | 51 | 60 | 0.0 | 4.3 | 0.00 | 0.00 | 0.00 | 87 | 1016.8 |
| 20260502151217 | 51 | 0 | 0.0 | 0.0 | 0.00 | 0.00 | 0.00 | 87 | 1016.8 |
| 20260502150704 | 51 | 0 | 0.0 | 0.0 | 0.00 | 0.00 | 0.00 | 87 | 1016.9 |
| 20260502150150 | 51 | 0 | 0.0 | 0.0 | 0.00 | 0.00 | 0.00 | 87 | 1016.9 |
| 20260502130704 | 50 | 0 | 0.0 | 0.0 | 0.00 | 0.00 | 0.00 | 87 | 1016.8 |
| 20260502130151 | 50 | 0 | 0.0 | 0.0 | 0.00 | 0.00 | 0.00 | 87 | 1016.9 |
| 20260502123546 | 50 | 47 | 0.9 | 4.3 | 0.00 | 0.00 | 0.00 | 87 | 1016.8 |
| 20260502123033 | 50 | 0 | 0.0 | 0.0 | 0.00 | 0.00 | 0.00 | 87 | 1016.9 |
| 20260502122520 | 50 | 50 | 0.0 | 8.7 | 0.00 | 0.00 | 0.00 | 87 | 1016.7 |
| 20260502121454 | 50 | 95 | 1.7 | 8.7 | 0.00 | 0.00 | 0.00 | 87 | 1016.6 |
| 20260502120941 | 50 | 53 | 0.0 | 6.1 | 0.00 | 0.00 | 0.00 | 87 | 1016.7 |
| 20260502120428 | 50 | 54 | 0.9 | 6.1 | 0.00 | 0.00 | 0.00 | 87 | 1016.9 |
| 20260502115915 | 50 | 86 | 2.6 | 6.1 | 0.00 | 0.00 | 0.00 | 87 | 1017.1 |
| 20260502115402 | 50 | 0 | 0.0 | 4.3 | 0.00 | 0.00 | 0.00 | 86 | 1017.1 |
| 20260502114849 | 50 | 0 | 0.0 | 4.3 | 0.00 | 0.00 | 0.00 | 86 | 1017.1 |
| 20260502114336 | 50 | 0 | 0.0 | 0.0 | 0.00 | 0.00 | 0.00 | 86 | 1017.1 |
| 20260502113310 | 50 | 35 | 0.0 | 7.0 | 0.00 | 0.00 | 0.00 | 86 | 1017.1 |
| 20260502112757 | 50 | 88 | 0.0 | 7.0 | 0.00 | 0.00 | 0.00 | 86 | 1017.1 |
| 20260502112244 | 50 | 49 | 0.9 | 7.0 | 0.00 | 0.00 | 0.00 | 86 | 1017.2 |
| 20260502111731 | 50 | 54 | 0.9 | 4.3 | 0.00 | 0.00 | 0.00 | 86 | 1017.2 |
| 20260502111218 | 50 | 0 | 0.0 | 4.3 | 0.00 | 0.00 | 0.00 | 86 | 1017.2 |
| 20260502110705 | 50 | 85 | 0.0 | 4.3 | 0.00 | 0.00 | 0.00 | 86 | 1017.2 |
| 20260502110152 | 50 | 0 | 0.0 | 7.0 | 0.00 | 0.00 | 0.00 | 86 | 1017.3 |
| 20260502105639 | 50 | 56 | 0.0 | 7.0 | 0.00 | 0.00 | 0.00 | 86 | 1017.2 |
| 20260502105126 | 50 | 0 | 0.0 | 7.0 | 0.00 | 0.00 | 0.00 | 86 | 1017.2 |
| 20260502104613 | 51 | 0 | 0.0 | 6.1 | 0.00 | 0.00 | 0.00 | 86 | 1017.2 |
| 20260502104101 | 51 | 39 | 0.0 | 6.1 | 0.00 | 0.00 | 0.00 | 86 | 1017.2 |
| 20260502103547 | 51 | 0 | 0.0 | 2.6 | 0.00 | 0.00 | 0.00 | 86 | 1017.3 |
| 20260502103034 | 50 | 0 | 0.0 | 4.3 | 0.00 | 0.00 | 0.00 | 86 | 1017.3 |
| 20260502102522 | 51 | 0 | 0.0 | 4.3 | 0.00 | 0.00 | 0.00 | 86 | 1017.4 |
| 20260502102009 | 51 | 68 | 0.9 | 4.3 | 0.00 | 0.00 | 0.00 | 86 | 1017.4 |
| 20260502101455 | 51 | 0 | 0.0 | 0.0 | 0.00 | 0.00 | 0.00 | 86 | 1017.3 |
| 20260502100942 | 51 | 0 | 0.0 | 7.8 | 0.00 | 0.00 | 0.00 | 86 | 1017.4 |
| 20260502100429 | 50 | 71 | 0.0 | 7.8 | 0.00 | 0.00 | 0.00 | 86 | 1017.4 |
| 20260502091220 | 51 | 91 | 0.0 | 7.8 | 0.00 | 0.00 | 0.00 | 86 | 1017.7 |
| 20260502090706 | 51 | 74 | 0.0 | 7.8 | 0.00 | 0.00 | 0.00 | 86 | 1017.8 |
| 20260502090153 | 51 | 102 | 0.0 | 7.0 | 0.00 | 0.00 | 0.00 | 86 | 1017.7 |
| 20260502071220 | 51 | 114 | 0.0 | 4.3 | 0.00 | 0.00 | 0.00 | 86 | 1018.4 |
| 20260502070707 | 51 | 26 | 0.0 | 2.6 | 0.00 | 0.00 | 0.00 | 86 | 1018.4 |
| 20260502070155 | 51 | 0 | 0.0 | 7.8 | 0.00 | 0.00 | 0.00 | 86 | 1018.3 |
| 20260502065641 | 51 | 338 | 0.0 | 7.8 | 0.00 | 0.00 | 0.00 | 86 | 1018.3 |
| 20260502065128 | 51 | 98 | 2.6 | 7.8 | 0.00 | 0.00 | 0.00 | 86 | 1018.3 |
| 20260502064615 | 51 | 61 | 0.0 | 6.1 | 0.00 | 0.00 | 0.00 | 86 | 1018.4 |
| 20260502064102 | 51 | 92 | 3.5 | 6.1 | 0.00 | 0.00 | 0.00 | 86 | 1018.4 |
| 20260502063550 | 51 | 61 | 0.9 | 5.2 | 0.00 | 0.00 | 0.00 | 86 | 1018.3 |
| 20260502063036 | 51 | 60 | 0.0 | 5.2 | 0.00 | 0.00 | 0.00 | 86 | 1018.4 |
| 20260502062523 | 51 | 0 | 0.0 | 10.4 | 0.00 | 0.00 | 0.00 | 86 | 1018.4 |
| 20260502062010 | 51 | 138 | 0.0 | 10.4 | 0.00 | 0.00 | 0.00 | 86 | 1018.5 |
| 20260502061457 | 51 | 0 | 0.0 | 10.4 | 0.00 | 0.00 | 0.00 | 86 | 1018.5 |
| 20260502060944 | 51 | 49 | 1.7 | 6.1 | 0.00 | 0.00 | 0.00 | 86 | 1018.6 |
| 20260502060431 | 51 | 0 | 0.0 | 5.2 | 0.00 | 0.00 | 0.00 | 86 | 1018.6 |
| 20260502055918 | 51 | 18 | 0.0 | 5.2 | 0.00 | 0.00 | 0.00 | 86 | 1018.7 |
| 20260502055405 | 51 | 0 | 0.0 | 0.0 | 0.00 | 0.00 | 0.00 | 86 | 1018.7 |
| 20260502054852 | 51 | 112 | 0.0 | 7.0 | 0.00 | 0.00 | 0.00 | 86 | 1018.7 |
| 20260502054339 | 51 | 0 | 1.7 | 7.0 | 0.00 | 0.00 | 0.00 | 86 | 1018.7 |
| 20260502053313 | 51 | 0 | 0.0 | 9.6 | 0.00 | 0.00 | 0.00 | 86 | 1018.7 |
| 20260502052800 | 51 | 36 | 1.7 | 9.6 | 0.00 | 0.00 | 0.00 | 86 | 1018.6 |
| 20260502052247 | 51 | 89 | 5.2 | 9.6 | 0.00 | 0.00 | 0.00 | 86 | 1018.7 |
| 20260502051734 | 51 | 95 | 0.0 | 7.0 | 0.00 | 0.00 | 0.00 | 86 | 1018.7 |
| 20260502051221 | 51 | 93 | 2.6 | 8.7 | 0.00 | 0.00 | 0.00 | 86 | 1018.7 |
| 20260502050708 | 51 | 357 | 0.0 | 8.7 | 0.00 | 0.00 | 0.00 | 86 | 1018.7 |
| 20260502050155 | 51 | 330 | 0.9 | 8.7 | 0.00 | 0.00 | 0.00 | 86 | 1018.8 |
| 20260502045642 | 51 | 0 | 0.0 | 7.0 | 0.00 | 0.00 | 0.00 | 86 | 1018.8 |
| 20260502045129 | 51 | 93 | 0.0 | 7.0 | 0.00 | 0.00 | 0.00 | 87 | 1018.7 |
| 20260502044103 | 51 | 85 | 0.9 | 7.8 | 0.00 | 0.00 | 0.00 | 87 | 1018.7 |
| 20260502043550 | 51 | 77 | 1.7 | 7.8 | 0.00 | 0.00 | 0.00 | 87 | 1018.6 |
| 20260502043037 | 51 | 47 | 0.0 | 9.6 | 0.00 | 0.00 | 0.00 | 87 | 1018.7 |
| 20260502042524 | 51 | 124 | 0.0 | 9.6 | 0.00 | 0.00 | 0.00 | 87 | 1018.6 |
| 20260502041458 | 51 | 309 | 2.6 | 7.0 | 0.00 | 0.00 | 0.00 | 87 | 1018.4 |
| 20260502040945 | 51 | 0 | 0.0 | 7.0 | 0.00 | 0.00 | 0.00 | 87 | 1018.3 |
| 20260502040432 | 51 | 0 | 0.0 | 7.0 | 0.00 | 0.00 | 0.00 | 87 | 1018.3 |
| 20260502035919 | 51 | 0 | 0.0 | 7.0 | 0.00 | 0.00 | 0.00 | 87 | 1018.3 |
| 20260502035406 | 51 | 0 | 0.0 | 7.0 | 0.00 | 0.00 | 0.00 | 87 | 1018.3 |
| 20260502034853 | 51 | 0 | 0.9 | 4.3 | 0.00 | 0.00 | 0.00 | 87 | 1018.3 |
| 20260502034340 | 51 | 0 | 0.0 | 4.3 | 0.00 | 0.00 | 0.00 | 87 | 1018.3 |
| 20260502033827 | 51 | 67 | 1.7 | 6.1 | 0.00 | 0.00 | 0.00 | 87 | 1018.3 |
| 20260502033314 | 51 | 0 | 0.0 | 6.1 | 0.00 | 0.00 | 0.00 | 87 | 1018.3 |
| 20260502032801 | 51 | 49 | 0.0 | 6.1 | 0.00 | 0.00 | 0.00 | 87 | 1018.3 |
| 20260502032248 | 51 | 93 | 1.7 | 9.6 | 0.00 | 0.00 | 0.00 | 87 | 1018.3 |
| 20260502031735 | 51 | 75 | 4.3 | 9.6 | 0.00 | 0.00 | 0.00 | 87 | 1018.2 |
| 20260502031222 | 51 | 30 | 0.0 | 9.6 | 0.00 | 0.00 | 0.00 | 87 | 1018.2 |
| 20260502030709 | 51 | 98 | 0.0 | 7.0 | 0.00 | 0.00 | 0.00 | 87 | 1018.2 |
| 20260502030156 | 51 | 89 | 0.9 | 6.1 | 0.00 | 0.00 | 0.00 | 87 | 1018.2 |
| 20260502025645 | 51 | 0 | 0.0 | 6.1 | 0.00 | 0.00 | 0.00 | 87 | 1018.1 |
| 20260502025130 | 51 | 35 | 2.6 | 6.1 | 0.00 | 0.00 | 0.00 | 87 | 1018.1 |
| 20260502024617 | 51 | 357 | 0.0 | 5.2 | 0.00 | 0.00 | 0.00 | 87 | 1018.1 |
| 20260502024105 | 51 | 312 | 0.0 | 6.1 | 0.00 | 0.00 | 0.00 | 87 | 1018.1 |
| 20260502023551 | 51 | 135 | 0.9 | 6.1 | 0.00 | 0.00 | 0.00 | 87 | 1018.0 |
| 20260502023037 | 51 | 305 | 0.9 | 6.1 | 0.00 | 0.00 | 0.00 | 87 | 1018.0 |
| 20260502022525 | 51 | 49 | 0.9 | 6.1 | 0.00 | 0.00 | 0.00 | 87 | 1018.0 |
| 20260502022014 | 51 | 0 | 0.0 | 4.3 | 0.00 | 0.00 | 0.00 | 87 | 1018.0 |
| 20260502021459 | 51 | 106 | 0.0 | 6.1 | 0.00 | 0.00 | 0.00 | 87 | 1017.9 |
| 20260502020945 | 51 | 0 | 0.0 | 6.1 | 0.00 | 0.00 | 0.00 | 87 | 1017.9 |
| 20260502020432 | 51 | 357 | 0.0 | 6.1 | 0.00 | 0.00 | 0.00 | 87 | 1017.9 |
| 20260502015919 | 51 | 0 | 0.0 | 0.0 | 0.00 | 0.00 | 0.00 | 87 | 1017.9 |
| 20260502015406 | 52 | 0 | 0.0 | 7.8 | 0.00 | 0.00 | 0.00 | 87 | 1017.9 |
| 20260502014854 | 51 | 0 | 0.9 | 7.8 | 0.00 | 0.00 | 0.00 | 87 | 1017.9 |
| 20260502013830 | 52 | 0 | 0.0 | 4.3 | 0.00 | 0.00 | 0.00 | 87 | 1018.0 |
| 20260502013314 | 52 | 0 | 0.0 | 6.1 | 0.00 | 0.00 | 0.00 | 87 | 1017.9 |
| 20260502012801 | 52 | 84 | 0.0 | 6.1 | 0.00 | 0.00 | 0.00 | 87 | 1018.0 |
| 20260502012248 | 52 | 347 | 1.7 | 6.1 | 0.00 | 0.00 | 0.00 | 87 | 1017.9 |
| 20260502011736 | 52 | 4 | 0.0 | 5.2 | 0.00 | 0.00 | 0.00 | 87 | 1017.9 |
| 20260502010709 | 52 | 37 | 0.0 | 5.2 | 0.00 | 0.00 | 0.00 | 87 | 1018.0 |
| 20260502010156 | 52 | 327 | 0.0 | 6.1 | 0.00 | 0.00 | 0.00 | 87 | 1018.0 |
| 20260502005643 | 52 | 58 | 1.7 | 6.1 | 0.00 | 0.00 | 0.00 | 87 | 1018.1 |
| 20260502005130 | 52 | 117 | 0.9 | 6.1 | 0.00 | 0.00 | 0.00 | 87 | 1018.0 |
| 20260502004617 | 52 | 0 | 0.0 | 4.3 | 0.00 | 0.00 | 0.00 | 87 | 1018.1 |
| 20260502004104 | 52 | 340 | 0.0 | 4.3 | 0.00 | 0.00 | 0.00 | 86 | 1018.0 |
| 20260502003551 | 52 | 42 | 1.7 | 8.7 | 0.00 | 0.00 | 0.00 | 86 | 1018.0 |
| 20260502003038 | 52 | 7 | 0.0 | 8.7 | 0.00 | 0.00 | 0.00 | 86 | 1017.9 |
| 20260502002525 | 52 | 99 | 2.6 | 8.7 | 0.00 | 0.00 | 0.00 | 86 | 1018.0 |
| 20260502002013 | 52 | 58 | 0.9 | 7.8 | 0.00 | 0.00 | 0.00 | 86 | 1017.9 |
| 20260502001459 | 52 | 121 | 0.0 | 7.8 | 0.00 | 0.00 | 0.00 | 86 | 1017.9 |
| 20260502000947 | 52 | 88 | 0.0 | 6.1 | 0.00 | 0.00 | 0.00 | 86 | 1017.9 |
| 20260502000434 | 52 | 0 | 0.0 | 6.1 | 0.00 | 0.00 | 0.00 | 86 | 1017.9 |
| 20260501235920 | 53 | 47 | 1.7 | 6.1 | 0.00 | 0.00 | 0.00 | 86 | 1017.9 |
| 20260501235407 | 53 | 44 | 0.0 | 6.1 | 0.00 | 0.00 | 0.00 | 86 | 1017.9 |
| 20260501234854 | 53 | 350 | 3.5 | 5.2 | 0.00 | 0.00 | 0.00 | 86 | 1018.0 |
| 20260501234341 | 53 | 338 | 0.9 | 6.1 | 0.00 | 0.00 | 0.00 | 86 | 1018.1 |
| 20260501233829 | 53 | 81 | 1.7 | 6.1 | 0.00 | 0.00 | 0.00 | 86 | 1018.1 |
| 20260501233315 | 52 | 0 | 2.6 | 6.1 | 0.00 | 0.00 | 0.00 | 86 | 1018.0 |
| 20260501232802 | 53 | 7 | 4.3 | 8.7 | 0.00 | 0.00 | 0.00 | 86 | 1018.1 |
| 20260501232249 | 53 | 317 | 2.6 | 8.7 | 0.00 | 0.00 | 0.00 | 86 | 1018.1 |
| 20260501231223 | 53 | 309 | 2.6 | 7.8 | 0.00 | 0.00 | 0.00 | 86 | 1018.2 |
| 20260501230710 | 53 | 22 | 0.0 | 7.8 | 0.00 | 0.00 | 0.00 | 86 | 1018.3 |
| 20260501230157 | 53 | 315 | 4.3 | 7.8 | 0.00 | 0.00 | 0.00 | 86 | 1018.3 |
| 20260501225131 | 53 | 305 | 0.9 | 7.0 | 0.00 | 0.00 | 0.00 | 86 | 1018.5 |
| 20260501224618 | 53 | 336 | 0.0 | 8.7 | 0.00 | 0.00 | 0.00 | 86 | 1018.5 |
| 20260501224105 | 53 | 292 | 1.7 | 8.7 | 0.00 | 0.00 | 0.00 | 86 | 1018.6 |
| 20260501223552 | 53 | 326 | 3.5 | 7.0 | 0.00 | 0.00 | 0.00 | 86 | 1018.6 |
| 20260501223039 | 53 | 341 | 0.0 | 6.1 | 0.00 | 0.00 | 0.00 | 86 | 1018.7 |
| 20260501222527 | 53 | 65 | 1.7 | 6.1 | 0.00 | 0.00 | 0.00 | 86 | 1018.7 |
| 20260501222013 | 53 | 61 | 0.9 | 8.7 | 0.00 | 0.00 | 0.00 | 86 | 1018.8 |
| 20260501221500 | 53 | 340 | 0.9 | 8.7 | 0.00 | 0.00 | 0.00 | 86 | 1018.8 |
| 20260501220947 | 53 | 357 | 2.6 | 8.7 | 0.00 | 0.00 | 0.00 | 86 | 1018.8 |
| 20260501220434 | 53 | 327 | 2.6 | 6.1 | 0.00 | 0.00 | 0.00 | 86 | 1018.9 |
| 20260501215408 | 52 | 303 | 0.9 | 7.8 | 0.00 | 0.00 | 0.00 | 86 | 1018.8 |
| 20260501214855 | 52 | 25 | 0.0 | 7.8 | 0.00 | 0.00 | 0.00 | 86 | 1018.8 |
| 20260501214342 | 53 | 320 | 0.0 | 7.8 | 0.00 | 0.00 | 0.00 | 86 | 1018.8 |
| 20260501213829 | 53 | 0 | 3.5 | 6.1 | 0.00 | 0.00 | 0.00 | 86 | 1018.7 |
| 20260501213316 | 53 | 329 | 0.0 | 6.1 | 0.00 | 0.00 | 0.00 | 86 | 1018.7 |
| 20260501212803 | 53 | 354 | 0.0 | 7.0 | 0.00 | 0.00 | 0.00 | 86 | 1018.7 |
| 20260501212250 | 53 | 23 | 0.0 | 7.0 | 0.00 | 0.00 | 0.00 | 86 | 1018.8 |
| 20260501211737 | 53 | 357 | 3.5 | 7.0 | 0.00 | 0.00 | 0.00 | 85 | 1018.8 |
| 20260501211224 | 53 | 316 | 0.0 | 4.3 | 0.00 | 0.00 | 0.00 | 86 | 1018.8 |
| 20260501210711 | 53 | 326 | 0.0 | 6.1 | 0.00 | 0.00 | 0.00 | 86 | 1018.9 |
| 20260501210158 | 53 | 36 | 0.0 | 6.1 | 0.00 | 0.00 | 0.00 | 86 | 1018.8 |
| 20260501205646 | 53 | 11 | 2.6 | 6.1 | 0.00 | 0.00 | 0.00 | 86 | 1018.9 |
| 20260501205132 | 53 | 320 | 0.9 | 6.1 | 0.00 | 0.00 | 0.00 | 86 | 1018.8 |
| 20260501204106 | 53 | 8 | 0.9 | 6.1 | 0.00 | 0.00 | 0.00 | 86 | 1018.8 |
| 20260501203554 | 53 | 323 | 1.7 | 5.2 | 0.00 | 0.00 | 0.00 | 86 | 1018.8 |
| 20260501203040 | 53 | 312 | 0.9 | 5.2 | 0.00 | 0.00 | 0.00 | 86 | 1018.8 |
| 20260501202527 | 53 | 316 | 0.9 | 5.2 | 0.00 | 0.00 | 0.00 | 86 | 1018.8 |
| 20260501202015 | 53 | 312 | 0.0 | 5.2 | 0.00 | 0.00 | 0.00 | 86 | 1018.8 |
| 20260501201501 | 53 | 294 | 1.7 | 6.1 | 0.00 | 0.00 | 0.00 | 86 | 1018.8 |
| 20260501200948 | 53 | 324 | 0.9 | 6.1 | 0.00 | 0.00 | 0.00 | 86 | 1018.8 |
| 20260501200435 | 53 | 324 | 2.6 | 6.1 | 0.00 | 0.00 | 0.00 | 86 | 1018.8 |
| 20260501195922 | 53 | 340 | 0.9 | 7.0 | 0.00 | 0.00 | 0.00 | 86 | 1018.8 |
| 20260501195409 | 53 | 0 | 0.0 | 7.0 | 0.00 | 0.00 | 0.00 | 86 | 1018.9 |
| 20260501194856 | 53 | 292 | 0.0 | 7.0 | 0.00 | 0.00 | 0.00 | 86 | 1018.9 |
| 20260501194343 | 53 | 0 | 1.7 | 7.0 | 0.00 | 0.00 | 0.00 | 86 | 1018.8 |
| 20260501193830 | 53 | 348 | 0.9 | 6.1 | 0.00 | 0.00 | 0.00 | 86 | 1018.8 |
| 20260501193319 | 53 | 0 | 0.9 | 6.1 | 0.00 | 0.00 | 0.00 | 86 | 1018.8 |
| 20260501192804 | 53 | 105 | 2.6 | 5.2 | 0.00 | 0.00 | 0.00 | 87 | 1018.8 |
| 20260501192251 | 52 | 357 | 0.9 | 7.8 | 0.00 | 0.00 | 0.00 | 87 | 1019.0 |
| 20260501191738 | 53 | 19 | 0.0 | 7.8 | 0.00 | 0.00 | 0.00 | 87 | 1019.0 |
| 20260501191225 | 52 | 298 | 1.7 | 7.8 | 0.00 | 0.00 | 0.00 | 87 | 1019.0 |